Location: Allos
(44.2333°N, 6.6333°E)
Time: 11:07:10
(UTC+00:00)

Okean O Rocket - Pass Details

Date: 01 December 2020
Orbit: 622 x 645 km, 98.2° (Epoch: 25 January)

Event Time Altitude Azimuth Distance (km) Brightness Sun altitude
Rises 17:55:47 0° 197° (SSW) 2,896 5.4 -20.9°
Reaches altitude 10° 17:58:19 10° 212° (SSW) 1,998 4.7 -21.3°
Maximum altitude 18:01:49 24° 266° (W) 1,321 4.0 -21.9°
Drops below altitude 10° 18:05:23 10° 320° (NW) 2,022 4.6 -22.6°
Sets 18:07:58 0° 334° (NNW) 2,940 5.2 -23.0°
